{"data":{"norad_id":57608,"intl_designator":"2023-119G","name":"STARLINK-30258","alt_names":[],"object_type":"PAYLOAD","status":"ACTIVE","operator":null,"country":"US","launch_date":"2023-08-11","launch_site_code":"AFETR","launch_vehicle":null,"mission":null,"orbit_class":"UNKNOWN","rcs_meters":null,"size_class":null,"mass_kg":null,"dimensions":null,"purposes":["comms"],"wikipedia_slug":null,"has_3d_model":false,"image_url":null,"decayed_at":null,"tle_current":{"epoch":"2026-05-25T00:13:23.778336Z","epoch_age_seconds":81195,"freshness":"FRESH","line1":"1 57608U 23119G   26145.00930299  .00001235  00000+0  54395-4 0  9992","line2":"2 57608  43.0073  10.9732 0001022 268.2548  91.8186 15.27579517154751","mean_motion":15.27579517,"eccentricity":0.0001022,"inclination_deg":43.0073,"raan_deg":10.9732,"arg_perigee_deg":268.2548,"mean_anomaly_deg":91.8186,"bstar":5.4395e-5,"rev_number":15475,"period_min":94.266778519524,"perigee_km":482.34932894897,"apogee_km":483.75175568262,"semimajor_km":6861.1875423158,"source":"CELESTRAK","updated_at":"2026-05-25T13:38:18.355645Z"}}}